| time (UTC) | temp C | wind direction | speed KPH | gust KPH | rain 1hr cm | rain 24hr cm | rain mn cm | humidity % | barometer mb |
| 20260506163513 | 12 | 359 | 11.3 | 16.1 | 0.00 | 0.23 | 0.23 | 91 | 1012.4 |
| 20260506163322 | 13 | 4 | 8.0 | 16.1 | 0.00 | 0.23 | 0.23 | 92 | 1014.7 |
| 20260506163003 | 12 | 14 | 4.8 | 12.9 | 0.03 | 0.23 | 0.23 | 92 | 1012.8 |
| 20260506162818 | 13 | 354 | 6.4 | 12.9 | 0.03 | 0.23 | 0.23 | 92 | 1014.8 |
| 20260506162553 | 12 | 359 | 4.8 | 11.3 | 0.03 | 0.23 | 0.23 | 91 | 1012.6 |
| 20260506162315 | 12 | 354 | 6.4 | 16.1 | 0.03 | 0.23 | 0.23 | 91 | 1014.6 |
| 20260506162045 | 12 | 332 | 4.8 | 16.1 | 0.05 | 0.23 | 0.23 | 91 | 1012.5 |
| 20260506161829 | 12 | 27 | 4.8 | 16.1 | 0.05 | 0.23 | 0.23 | 91 | 1014.2 |
| 20260506161542 | 12 | 79 | 8.0 | 16.1 | 0.05 | 0.23 | 0.23 | 92 | 1012.2 |
| 20260506161327 | 12 | 154 | 6.4 | 17.7 | 0.05 | 0.23 | 0.23 | 92 | 1014.0 |
| 20260506161032 | 12 | 84 | 4.8 | 17.7 | 0.05 | 0.23 | 0.23 | 92 | 1011.8 |
| 20260506160822 | 12 | 59 | 8.0 | 22.5 | 0.05 | 0.23 | 0.23 | 92 | 1013.7 |
| 20260506160527 | 12 | 124 | 9.7 | 22.5 | 0.05 | 0.23 | 0.23 | 91 | 1011.8 |
| 20260506160318 | 12 | 85 | 9.7 | 25.7 | 0.08 | 0.23 | 0.23 | 91 | 1013.7 |
| 20260506160012 | 12 | 122 | 9.7 | 25.7 | 0.10 | 0.23 | 0.23 | 91 | 1011.9 |
| 20260506155854 | 12 | 137 | 9.7 | 25.7 | 0.10 | 0.23 | 0.23 | 91 | 1013.8 |
| 20260506155539 | 12 | 97 | 12.9 | 25.7 | 0.15 | 0.23 | 0.23 | 92 | 1011.5 |
| 20260506155329 | 12 | 57 | 11.3 | 20.9 | 0.18 | 0.23 | 0.23 | 92 | 1013.7 |
| 20260506155034 | 12 | 97 | 11.3 | 22.5 | 0.20 | 0.23 | 0.23 | 92 | 1011.5 |
| 20260506154825 | 12 | 110 | 11.3 | 22.5 | 0.20 | 0.23 | 0.23 | 92 | 1013.1 |
| 20260506154531 | 12 | 76 | 12.9 | 22.5 | 0.20 | 0.23 | 0.23 | 92 | 1011.0 |
| 20260506154323 | 12 | 63 | 11.3 | 19.3 | 0.20 | 0.23 | 0.23 | 91 | 1013.1 |
| 20260506154010 | 12 | 66 | 8.0 | 22.5 | 0.20 | 0.23 | 0.23 | 91 | 1011.8 |
| 20260506153820 | 12 | 124 | 9.7 | 22.5 | 0.20 | 0.23 | 0.23 | 91 | 1014.3 |
| 20260506153559 | 12 | 77 | 11.3 | 22.5 | 0.20 | 0.23 | 0.23 | 91 | 1011.9 |
| 20260506153336 | 12 | 93 | 8.0 | 16.1 | 0.20 | 0.23 | 0.23 | 91 | 1014.0 |
| 20260506153030 | 12 | 77 | 6.4 | 24.1 | 0.18 | 0.20 | 0.20 | 91 | 1013.0 |
| 20260506152832 | 12 | 23 | 3.2 | 24.1 | 0.18 | 0.20 | 0.20 | 91 | 1015.4 |
| 20260506152518 | 12 | 333 | 11.3 | 24.1 | 0.18 | 0.20 | 0.20 | 91 | 1013.0 |
| 20260506152327 | 12 | 342 | 16.1 | 24.1 | 0.18 | 0.20 | 0.20 | 91 | 1014.2 |
| 20260506152005 | 12 | 22 | 12.9 | 20.9 | 0.15 | 0.18 | 0.18 | 91 | 1012.7 |
| 20260506151824 | 12 | 359 | 9.7 | 16.1 | 0.15 | 0.18 | 0.18 | 91 | 1015.1 |
| 20260506151601 | 12 | 303 | 1.6 | 22.5 | 0.15 | 0.18 | 0.18 | 91 | 1013.7 |
| 20260506151321 | 12 | 57 | 9.7 | 22.5 | 0.15 | 0.18 | 0.18 | 91 | 1015.6 |
| 20260506151053 | 12 | 359 | 12.9 | 20.9 | 0.15 | 0.18 | 0.18 | 91 | 1013.3 |
| 20260506150817 | 12 | 27 | 9.7 | 19.3 | 0.15 | 0.18 | 0.18 | 91 | 1015.5 |
| 20260506150545 | 12 | 20 | 9.7 | 22.5 | 0.13 | 0.15 | 0.18 | 91 | 1013.6 |
| 20260506150334 | 12 | 4 | 8.0 | 24.1 | 0.13 | 0.15 | 0.15 | 91 | 1015.5 |
| 20260506150009 | 12 | 4 | 11.3 | 27.4 | 0.10 | 0.13 | 0.13 | 91 | 1013.5 |
| 20260506145830 | 12 | 26 | 11.3 | 27.4 | 0.08 | 0.10 | 0.10 | 91 | 1015.5 |
| 20260506145603 | 12 | 33 | 11.3 | 27.4 | 0.03 | 0.05 | 0.08 | 91 | 1013.3 |
| 20260506145325 | 12 | 30 | 14.5 | 25.7 | 0.03 | 0.05 | 0.05 | 91 | 1015.6 |
| 20260506145052 | 12 | 4 | 14.5 | 30.6 | 0.00 | 0.03 | 0.03 | 91 | 1013.9 |
| 20260506144820 | 13 | 322 | 17.7 | 30.6 | 0.00 | 0.03 | 0.03 | 90 | 1015.9 |
| 20260506144548 | 12 | 349 | 16.1 | 30.6 | 0.00 | 0.03 | 0.03 | 90 | 1013.3 |
| 20260506144315 | 13 | 315 | 17.7 | 30.6 | 0.00 | 0.03 | 0.03 | 91 | 1015.2 |
| 20260506144037 | 13 | 12 | 12.9 | 29.0 | 0.00 | 0.03 | 0.03 | 90 | 1012.7 |
| 20260506143827 | 13 | 14 | 14.5 | 29.0 | 0.00 | 0.03 | 0.03 | 90 | 1014.7 |
| 20260506143601 | 13 | 345 | 16.1 | 29.0 | 0.00 | 0.03 | 0.03 | 90 | 1012.8 |
| 20260506143323 | 13 | 4 | 16.1 | 29.0 | 0.00 | 0.03 | 0.03 | 90 | 1014.9 |
| 20260506143053 | 13 | 348 | 9.7 | 25.7 | 0.00 | 0.03 | 0.03 | 90 | 1012.9 |
| 20260506142819 | 13 | 34 | 14.5 | 25.7 | 0.00 | 0.03 | 0.03 | 89 | 1014.8 |
| 20260506142542 | 13 | 29 | 14.5 | 24.1 | 0.00 | 0.03 | 0.03 | 89 | 1012.5 |
| 20260506142402 | 13 | 8 | 14.5 | 25.7 | 0.00 | 0.03 | 0.03 | 89 | 1014.8 |
| 20260506142013 | 13 | 10 | 14.5 | 25.7 | 0.00 | 0.03 | 0.03 | 89 | 1012.7 |
| 20260506141830 | 14 | 26 | 12.9 | 25.7 | 0.00 | 0.03 | 0.03 | 88 | 1014.7 |
| 20260506141501 | 14 | 335 | 16.1 | 25.7 | 0.00 | 0.03 | 0.03 | 88 | 1012.8 |
| 20260506141325 | 14 | 359 | 14.5 | 27.4 | 0.00 | 0.03 | 0.03 | 88 | 1015.1 |
| 20260506141035 | 14 | 326 | 17.7 | 27.4 | 0.00 | 0.03 | 0.03 | 88 | 1012.7 |
| 20260506140841 | 15 | 359 | 16.1 | 27.4 | 0.00 | 0.03 | 0.03 | 88 | 1014.9 |
| 20260506140601 | 14 | 25 | 12.9 | 27.4 | 0.00 | 0.03 | 0.03 | 88 | 1012.6 |
| 20260506140316 | 15 | 344 | 12.9 | 27.4 | 0.00 | 0.03 | 0.03 | 87 | 1014.5 |
| 20260506140059 | 14 | 4 | 16.1 | 27.4 | 0.00 | 0.03 | 0.03 | 87 | 1012.2 |
| 20260506135831 | 15 | 39 | 12.9 | 25.7 | 0.00 | 0.03 | 0.03 | 87 | 1014.3 |
| 20260506135541 | 15 | 4 | 9.7 | 24.1 | 0.00 | 0.03 | 0.03 | 88 | 1012.2 |
| 20260506135327 | 15 | 350 | 9.7 | 24.1 | 0.00 | 0.03 | 0.03 | 88 | 1014.5 |
| 20260506135032 | 15 | 8 | 11.3 | 24.1 | 0.00 | 0.03 | 0.03 | 87 | 1012.2 |
| 20260506134824 | 15 | 4 | 16.1 | 24.1 | 0.00 | 0.03 | 0.03 | 87 | 1014.6 |
| 20260506134525 | 15 | 36 | 14.5 | 25.7 | 0.00 | 0.03 | 0.03 | 87 | 1012.1 |
| 20260506134320 | 15 | 354 | 16.1 | 25.7 | 0.00 | 0.03 | 0.03 | 87 | 1014.1 |
| 20260506134019 | 15 | 19 | 11.3 | 25.7 | 0.00 | 0.03 | 0.03 | 87 | 1011.4 |
| 20260506133835 | 15 | 38 | 16.1 | 25.7 | 0.00 | 0.03 | 0.03 | 87 | 1013.4 |
| 20260506133541 | 15 | 25 | 9.7 | 22.5 | 0.00 | 0.03 | 0.03 | 88 | 1010.9 |
| 20260506133350 | 15 | 81 | 12.9 | 22.5 | 0.00 | 0.03 | 0.03 | 88 | 1013.0 |
| 20260506133004 | 15 | 10 | 11.3 | 22.5 | 0.00 | 0.03 | 0.03 | 88 | 1010.6 |
| 20260506132824 | 15 | 37 | 11.3 | 22.5 | 0.00 | 0.03 | 0.03 | 88 | 1012.8 |
| 20260506132556 | 15 | 15 | 12.9 | 22.5 | 0.00 | 0.03 | 0.03 | 87 | 1010.4 |
| 20260506132340 | 15 | 27 | 12.9 | 19.3 | 0.00 | 0.03 | 0.03 | 87 | 1012.8 |
| 20260506132027 | 15 | 29 | 9.7 | 22.5 | 0.00 | 0.03 | 0.03 | 87 | 1010.6 |
| 20260506131834 | 16 | 8 | 8.0 | 22.5 | 0.00 | 0.03 | 0.03 | 87 | 1012.8 |
| 20260506131515 | 15 | 37 | 12.9 | 22.5 | 0.00 | 0.03 | 0.03 | 87 | 1010.5 |
| 20260506131328 | 16 | 37 | 12.9 | 22.5 | 0.00 | 0.03 | 0.03 | 87 | 1012.6 |
| 20260506131005 | 15 | 4 | 11.3 | 22.5 | 0.00 | 0.03 | 0.03 | 87 | 1010.5 |
| 20260506130824 | 16 | 10 | 12.9 | 22.5 | 0.00 | 0.03 | 0.03 | 87 | 1012.7 |
| 20260506130557 | 15 | 16 | 11.3 | 19.3 | 0.00 | 0.03 | 0.03 | 87 | 1010.5 |
| 20260506130320 | 16 | 359 | 8.0 | 19.3 | 0.00 | 0.03 | 0.03 | 88 | 1012.8 |
| 20260506130053 | 16 | 4 | 8.0 | 19.3 | 0.00 | 0.03 | 0.03 | 87 | 1010.5 |
| 20260506125816 | 16 | 8 | 8.0 | 14.5 | 0.00 | 0.03 | 0.03 | 88 | 1012.5 |
| 20260506125542 | 16 | 33 | 4.8 | 14.5 | 0.00 | 0.03 | 0.03 | 87 | 1010.2 |
| 20260506125332 | 16 | 50 | 8.0 | 14.5 | 0.03 | 0.03 | 0.03 | 87 | 1012.5 |
| 20260506125037 | 16 | 41 | 6.4 | 14.5 | 0.03 | 0.03 | 0.03 | 88 | 1010.3 |
| 20260506124829 | 16 | 42 | 6.4 | 14.5 | 0.03 | 0.03 | 0.03 | 88 | 1012.6 |
| 20260506124529 | 16 | 14 | 4.8 | 12.9 | 0.03 | 0.03 | 0.03 | 87 | 1010.2 |
| 20260506124325 | 16 | 31 | 4.8 | 16.1 | 0.03 | 0.03 | 0.03 | 87 | 1012.4 |
| 20260506124022 | 16 | 26 | 6.4 | 16.1 | 0.03 | 0.03 | 0.03 | 87 | 1010.1 |
| 20260506123821 | 16 | 62 | 8.0 | 16.1 | 0.03 | 0.03 | 0.03 | 87 | 1012.2 |
| 20260506123515 | 16 | 34 | 3.2 | 16.1 | 0.03 | 0.03 | 0.03 | 87 | 1009.8 |
| 20260506123318 | 16 | 54 | 4.8 | 14.5 | 0.03 | 0.03 | 0.03 | 87 | 1012.1 |
| 20260506123059 | 16 | 34 | 6.4 | 16.1 | 0.03 | 0.03 | 0.03 | 87 | 1009.8 |
| 20260506122816 | 16 | 47 | 8.0 | 16.1 | 0.03 | 0.03 | 0.03 | 86 | 1012.2 |
| 20260506122550 | 16 | 31 | 6.4 | 16.1 | 0.03 | 0.03 | 0.03 | 87 | 1009.8 |
| 20260506122333 | 16 | 32 | 6.4 | 14.5 | 0.03 | 0.03 | 0.03 | 87 | 1012.1 |
| 20260506122042 | 16 | 14 | 6.4 | 14.5 | 0.03 | 0.03 | 0.03 | 87 | 1009.8 |
| 20260506121828 | 16 | 4 | 6.4 | 14.5 | 0.03 | 0.03 | 0.03 | 87 | 1012.0 |
| 20260506121536 | 16 | 4 | 6.4 | 14.5 | 0.03 | 0.03 | 0.03 | 87 | 1009.7 |
| 20260506121340 | 17 | 359 | 8.0 | 14.5 | 0.03 | 0.03 | 0.03 | 87 | 1011.9 |
| 20260506121101 | 16 | 4 | 4.8 | 9.7 | 0.03 | 0.03 | 0.03 | 87 | 1009.6 |
| 20260506120816 | 17 | 16 | 6.4 | 14.5 | 0.03 | 0.03 | 0.03 | 87 | 1011.9 |
| 20260506120555 | 16 | 8 | 4.8 | 16.1 | 0.03 | 0.03 | 0.03 | 87 | 1009.4 |
| 20260506120331 | 17 | 4 | 4.8 | 16.1 | 0.03 | 0.03 | 0.03 | 87 | 1011.8 |
| 20260506120050 | 17 | 39 | 8.0 | 16.1 | 0.03 | 0.03 | 0.03 | 86 | 1009.3 |
| 20260506115826 | 17 | 59 | 9.7 | 14.5 | 0.03 | 0.03 | 0.03 | 87 | 1011.7 |
| 20260506115536 | 17 | 40 | 6.4 | 14.5 | 0.00 | 0.00 | 0.00 | 87 | 1009.2 |
| 20260506115320 | 17 | 41 | 8.0 | 14.5 | 0.00 | 0.00 | 0.00 | 87 | 1011.6 |
| 20260506115028 | 17 | 9 | 8.0 | 14.5 | 0.00 | 0.00 | 0.00 | 87 | 1009.2 |
| 20260506114816 | 17 | 11 | 4.8 | 9.7 | 0.00 | 0.00 | 0.00 | 87 | 1011.5 |
| 20260506114524 | 17 | 18 | 4.8 | 9.7 | 0.00 | 0.00 | 0.00 | 87 | 1009.1 |
| 20260506114331 | 18 | 4 | 4.8 | 8.0 | 0.00 | 0.00 | 0.00 | 88 | 1011.4 |
| 20260506114008 | 17 | 24 | 4.8 | 11.3 | 0.00 | 0.00 | 0.00 | 87 | 1009.2 |
| 20260506113827 | 18 | 359 | 4.8 | 11.3 | 0.00 | 0.00 | 0.00 | 87 | 1011.6 |
| 20260506113604 | 17 | 31 | 3.2 | 11.3 | 0.00 | 0.00 | 0.00 | 87 | 1009.2 |
| 20260506113321 | 18 | 25 | 6.4 | 11.3 | 0.00 | 0.00 | 0.00 | 86 | 1011.5 |
| 20260506113033 | 18 | 18 | 3.2 | 8.0 | 0.00 | 0.00 | 0.00 | 86 | 1009.1 |
| 20260506112818 | 18 | 34 | 4.8 | 9.7 | 0.00 | 0.00 | 0.00 | 86 | 1011.4 |
| 20260506112524 | 18 | 66 | 4.8 | 9.7 | 0.00 | 0.00 | 0.00 | 86 | 1009.1 |
| 20260506112314 | 18 | 73 | 3.2 | 9.7 | 0.00 | 0.00 | 0.00 | 86 | 1011.4 |
| 20260506112010 | 18 | 72 | 4.8 | 11.3 | 0.00 | 0.00 | 0.00 | 86 | 1008.9 |
| 20260506111829 | 18 | 48 | 3.2 | 6.4 | 0.00 | 0.00 | 0.00 | 87 | 1011.3 |
| 20260506111544 | 18 | 27 | 1.6 | 6.4 | 0.00 | 0.00 | 0.00 | 87 | 1009.1 |
| 20260506111325 | 18 | 27 | 1.6 | 9.7 | 0.00 | 0.00 | 0.00 | 87 | 1011.3 |
| 20260506111038 | 18 | 28 | 1.6 | 9.7 | 0.00 | 0.00 | 0.00 | 86 | 1009.0 |
| 20260506110842 | 18 | 28 | 3.2 | 9.7 | 0.00 | 0.00 | 0.00 | 86 | 1011.4 |
| 20260506110606 | 18 | 4 | 4.8 | 8.0 | 0.00 | 0.00 | 0.00 | 86 | 1009.0 |
| 20260506110317 | 19 | 4 | 4.8 | 8.0 | 0.00 | 0.00 | 0.00 | 86 | 1011.4 |
| 20260506110051 | 18 | 359 | 3.2 | 8.0 | 0.00 | 0.00 | 0.00 | 86 | 1009.0 |
| 20260506105814 | 19 | 359 | 4.8 | 8.0 | 0.00 | 0.00 | 0.00 | 86 | 1011.3 |
| 20260506105549 | 18 | 8 | 4.8 | 9.7 | 0.00 | 0.00 | 0.00 | 86 | 1009.0 |
| 20260506105330 | 19 | 4 | 6.4 | 9.7 | 0.00 | 0.00 | 0.00 | 86 | 1011.3 |
| 20260506105037 | 19 | 359 | 3.2 | 9.7 | 0.00 | 0.00 | 0.00 | 86 | 1008.8 |
| 20260506104827 | 19 | 359 | 4.8 | 9.7 | 0.00 | 0.00 | 0.00 | 86 | 1011.1 |
| 20260506104526 | 19 | 8 | 4.8 | 9.7 | 0.00 | 0.00 | 0.00 | 85 | 1008.7 |
| 20260506104323 | 19 | 337 | 4.8 | 9.7 | 0.00 | 0.00 | 0.00 | 85 | 1011.1 |
| 20260506104008 | 19 | 29 | 4.8 | 12.9 | 0.00 | 0.00 | 0.00 | 86 | 1008.8 |
| 20260506103819 | 20 | 359 | 3.2 | 12.9 | 0.00 | 0.00 | 0.00 | 86 | 1011.2 |
| 20260506103600 | 19 | 346 | 4.8 | 14.5 | 0.00 | 0.00 | 0.00 | 86 | 1008.8 |
| 20260506103315 | 20 | 18 | 6.4 | 14.5 | 0.00 | 0.00 | 0.00 | 85 | 1011.1 |
| 20260506103055 | 20 | 359 | 3.2 | 14.5 | 0.00 | 0.00 | 0.00 | 86 | 1008.7 |
| 20260506102830 | 20 | 348 | 8.0 | 14.5 | 0.00 | 0.00 | 0.00 | 85 | 1011.2 |
| 20260506102546 | 20 | 4 | 6.4 | 14.5 | 0.00 | 0.00 | 0.00 | 85 | 1008.7 |
| 20260506102327 | 21 | 354 | 9.7 | 14.5 | 0.00 | 0.00 | 0.00 | 85 | 1011.1 |
| 20260506102039 | 21 | 354 | 0.0 | 0.0 | 0.00 | 0.00 | 0.00 | 85 | 1008.6 |
| 20260506101822 | 22 | 359 | 0.0 | 0.0 | 0.00 | 0.00 | 0.00 | 86 | 1010.9 |
| 20260506101530 | 22 | 348 | 0.0 | 0.0 | 0.00 | 0.00 | 0.00 | 86 | 1008.4 |
| 20260506101318 | 22 | 329 | 0.0 | 0.0 | 0.00 | 0.00 | 0.00 | 88 | 1010.8 |
| 20260506101022 | 22 | 166 | 0.0 | 0.0 | 0.00 | 0.00 | 0.00 | 89 | 1008.4 |
| 20260506100814 | 23 | 166 | 0.0 | 0.0 | 0.00 | 0.00 | 0.00 | 89 | 1010.8 |
| 20260506100506 | 22 | 167 | 0.0 | 0.0 | 0.00 | 0.00 | 0.00 | 89 | 1008.3 |
| 20260506100331 | 23 | 166 | 0.0 | 0.0 | 0.00 | 0.00 | 0.00 | 89 | 1010.6 |
| 20260506100101 | 22 | 166 | 0.0 | 0.0 | 0.00 | 0.00 | 0.00 | 89 | 1008.2 |
| 20260506095827 | 23 | 141 | 0.0 | 0.0 | 0.00 | 0.00 | 0.00 | 89 | 1010.7 |
| 20260506095550 | 22 | 172 | 0.0 | 0.0 | 0.00 | 0.00 | 0.00 | 89 | 1008.1 |
| 20260506095342 | 23 | 161 | 0.0 | 0.0 | 0.00 | 0.00 | 0.00 | 89 | 1010.4 |
| 20260506095021 | 22 | 162 | 0.0 | 0.0 | 0.00 | 0.00 | 0.00 | 89 | 1008.0 |
| 20260506094816 | 23 | 144 | 0.0 | 0.0 | 0.00 | 0.00 | 0.00 | 89 | 1010.4 |
| 20260506094505 | 22 | 180 | 0.0 | 0.0 | 0.00 | 0.00 | 0.00 | 89 | 1008.0 |
| 20260506094333 | 23 | 181 | 0.0 | 0.0 | 0.00 | 0.00 | 0.00 | 89 | 1010.4 |
| 20260506094058 | 23 | 161 | 0.0 | 0.0 | 0.00 | 0.00 | 0.00 | 89 | 1008.0 |
| 20260506093827 | 23 | 160 | 0.0 | 0.0 | 0.00 | 0.00 | 0.00 | 89 | 1010.3 |
| 20260506093552 | 23 | 158 | 0.0 | 0.0 | 0.00 | 0.00 | 0.00 | 88 | 1007.8 |
| 20260506093323 | 23 | 162 | 0.0 | 0.0 | 0.00 | 0.00 | 0.00 | 88 | 1010.2 |
| 20260506093104 | 23 | 149 | 0.0 | 0.0 | 0.00 | 0.00 | 0.00 | 88 | 1007.8 |
| 20260506092818 | 23 | 149 | 0.0 | 0.0 | 0.00 | 0.00 | 0.00 | 88 | 1010.2 |
| 20260506092536 | 23 | 149 | 0.0 | 0.0 | 0.00 | 0.00 | 0.00 | 88 | 1007.8 |
| 20260506092314 | 23 | 149 | 0.0 | 0.0 | 0.00 | 0.00 | 0.00 | 88 | 1010.3 |
| 20260506092030 | 23 | 149 | 0.0 | 0.0 | 0.00 | 0.00 | 0.00 | 88 | 1007.9 |
| 20260506091832 | 23 | 149 | 0.0 | 0.0 | 0.00 | 0.00 | 0.00 | 88 | 1010.3 |
| 20260506091515 | 23 | 148 | 0.0 | 0.0 | 0.00 | 0.00 | 0.00 | 88 | 1007.8 |
| 20260506091322 | 23 | 149 | 0.0 | 0.0 | 0.00 | 0.00 | 0.00 | 88 | 1010.3 |
| 20260506091042 | 23 | 148 | 0.0 | 0.0 | 0.00 | 0.00 | 0.00 | 88 | 1007.8 |
| 20260506090818 | 23 | 149 | 0.0 | 0.0 | 0.00 | 0.00 | 0.00 | 88 | 1010.2 |
| 20260506090536 | 23 | 149 | 0.0 | 0.0 | 0.00 | 0.00 | 0.00 | 88 | 1007.8 |
| 20260506090333 | 23 | 149 | 0.0 | 0.0 | 0.00 | 0.00 | 0.00 | 88 | 1010.2 |
| 20260506090117 | 23 | 148 | 0.0 | 0.0 | 0.00 | 0.00 | 0.00 | 88 | 1007.7 |
| 20260506085828 | 23 | 149 | 0.0 | 0.0 | 0.00 | 0.00 | 0.00 | 88 | 1010.1 |
| 20260506085552 | 23 | 148 | 0.0 | 0.0 | 0.00 | 0.00 | 0.00 | 88 | 1007.6 |
| 20260506085326 | 23 | 149 | 0.0 | 0.0 | 0.00 | 0.00 | 0.00 | 88 | 1010.1 |
| 20260506085048 | 23 | 149 | 0.0 | 0.0 | 0.00 | 0.00 | 0.00 | 88 | 1007.7 |
| 20260506084822 | 23 | 148 | 0.0 | 0.0 | 0.00 | 0.00 | 0.00 | 88 | 1010.0 |
| 20260506084543 | 23 | 148 | 0.0 | 0.0 | 0.00 | 0.00 | 0.00 | 88 | 1007.6 |
| 20260506084316 | 23 | 149 | 0.0 | 0.0 | 0.00 | 0.00 | 0.00 | 88 | 1010.0 |
| 20260506084017 | 23 | 149 | 0.0 | 0.0 | 0.00 | 0.00 | 0.00 | 88 | 1007.6 |
| 20260506083832 | 23 | 149 | 0.0 | 0.0 | 0.00 | 0.00 | 0.00 | 88 | 1010.1 |
| 20260506083600 | 23 | 149 | 0.0 | 0.0 | 0.00 | 0.00 | 0.00 | 88 | 1007.7 |
| 20260506083329 | 23 | 149 | 0.0 | 0.0 | 0.00 | 0.00 | 0.00 | 88 | 1010.0 |
| 20260506083049 | 23 | 149 | 0.0 | 0.0 | 0.00 | 0.00 | 0.00 | 88 | 1007.5 |
| 20260506082825 | 23 | 149 | 0.0 | 0.0 | 0.00 | 0.00 | 0.00 | 88 | 1009.9 |
| 20260506082540 | 23 | 149 | 0.0 | 0.0 | 0.00 | 0.00 | 0.00 | 88 | 1007.5 |
| 20260506082322 | 23 | 135 | 0.0 | 0.0 | 0.00 | 0.00 | 0.00 | 88 | 1009.9 |
| 20260506082034 | 23 | 181 | 0.0 | 0.0 | 0.00 | 0.00 | 0.00 | 88 | 1007.5 |
| 20260506081838 | 23 | 181 | 0.0 | 0.0 | 0.00 | 0.00 | 0.00 | 88 | 1010.0 |
| 20260506081556 | 23 | 181 | 0.0 | 0.0 | 0.00 | 0.00 | 0.00 | 88 | 1007.5 |
| 20260506081333 | 23 | 181 | 0.0 | 0.0 | 0.00 | 0.00 | 0.00 | 88 | 1010.0 |
| 20260506081046 | 23 | 181 | 0.0 | 0.0 | 0.00 | 0.00 | 0.00 | 88 | 1007.5 |
| 20260506080848 | 23 | 181 | 0.0 | 0.0 | 0.00 | 0.00 | 0.00 | 88 | 1010.0 |
| 20260506080512 | 23 | 181 | 0.0 | 0.0 | 0.00 | 0.00 | 0.00 | 88 | 1007.6 |
| 20260506080345 | 23 | 181 | 0.0 | 0.0 | 0.00 | 0.00 | 0.00 | 88 | 1010.0 |
| 20260506073526 | 23 | 181 | 0.0 | 0.0 | 0.00 | 0.00 | 0.00 | 88 | 1007.7 |
| 20260506073317 | 23 | 181 | 0.0 | 0.0 | 0.00 | 0.00 | 0.00 | 88 | 1010.2 |
| 20260506073011 | 23 | 181 | 0.0 | 0.0 | 0.00 | 0.00 | 0.00 | 88 | 1007.8 |
| 20260506072833 | 23 | 181 | 0.0 | 0.0 | 0.00 | 0.00 | 0.00 | 88 | 1010.3 |
| 20260506072503 | 23 | 181 | 0.0 | 0.0 | 0.00 | 0.00 | 0.00 | 88 | 1007.9 |
| 20260506072330 | 23 | 181 | 0.0 | 0.0 | 0.00 | 0.00 | 0.00 | 87 | 1010.3 |
| 20260506072058 | 23 | 181 | 0.0 | 0.0 | 0.00 | 0.00 | 0.00 | 87 | 1007.8 |
| 20260506071827 | 23 | 181 | 0.0 | 0.0 | 0.00 | 0.00 | 0.00 | 87 | 1010.3 |
| 20260506071550 | 23 | 181 | 0.0 | 0.0 | 0.00 | 0.00 | 0.00 | 87 | 1008.0 |
| 20260506071340 | 23 | 181 | 0.0 | 0.0 | 0.00 | 0.00 | 0.00 | 87 | 1010.4 |
| 20260506071020 | 23 | 181 | 0.0 | 0.0 | 0.00 | 0.00 | 0.00 | 87 | 1008.0 |
| 20260506070834 | 23 | 181 | 0.0 | 0.0 | 0.00 | 0.00 | 0.00 | 87 | 1010.3 |
| 20260506070506 | 23 | 181 | 0.0 | 0.0 | 0.00 | 0.00 | 0.00 | 87 | 1008.0 |
| 20260506070330 | 23 | 181 | 0.0 | 0.0 | 0.00 | 0.00 | 0.00 | 87 | 1010.4 |
| 20260506062503 | 23 | 224 | 0.0 | 0.0 | 0.00 | 0.00 | 0.00 | 87 | 1007.9 |
| 20260506062341 | 23 | 225 | 0.0 | 0.0 | 0.00 | 0.00 | 0.00 | 87 | 1010.3 |
| 20260506062034 | 23 | 224 | 0.0 | 0.0 | 0.00 | 0.00 | 0.00 | 87 | 1007.9 |
| 20260506061816 | 23 | 225 | 0.0 | 0.0 | 0.00 | 0.00 | 0.00 | 87 | 1010.2 |
| 20260506061528 | 23 | 225 | 0.0 | 0.0 | 0.00 | 0.00 | 0.00 | 86 | 1007.9 |
| 20260506061331 | 23 | 225 | 0.0 | 0.0 | 0.00 | 0.00 | 0.00 | 87 | 1010.2 |
| 20260506061014 | 23 | 225 | 0.0 | 0.0 | 0.00 | 0.00 | 0.00 | 86 | 1007.7 |
| 20260506060828 | 23 | 225 | 0.0 | 0.0 | 0.00 | 0.00 | 0.00 | 86 | 1010.1 |
| 20260506060510 | 23 | 225 | 0.0 | 0.0 | 0.00 | 0.00 | 0.00 | 86 | 1007.8 |
| 20260506060323 | 23 | 225 | 0.0 | 0.0 | 0.00 | 0.00 | 0.00 | 86 | 1010.2 |
| 20260506060105 | 23 | 226 | 0.0 | 0.0 | 0.00 | 0.00 | 0.00 | 86 | 1007.7 |
| 20260506051348 | 24 | 189 | 0.0 | 0.0 | 0.00 | 0.00 | 0.00 | 85 | 1009.4 |
| 20260506051100 | 23 | 199 | 0.0 | 0.0 | 0.00 | 0.00 | 0.00 | 85 | 1006.9 |
| 20260506050823 | 24 | 205 | 0.0 | 0.0 | 0.00 | 0.00 | 0.00 | 85 | 1009.4 |
| 20260506050554 | 23 | 185 | 0.0 | 0.0 | 0.00 | 0.00 | 0.00 | 85 | 1007.1 |
| 20260506050319 | 24 | 184 | 0.0 | 0.0 | 0.00 | 0.00 | 0.00 | 85 | 1009.4 |
| 20260506045016 | 23 | 204 | 0.0 | 0.0 | 0.00 | 0.00 | 0.00 | 84 | 1007.1 |
| 20260506044816 | 24 | 199 | 0.0 | 0.0 | 0.00 | 0.00 | 0.00 | 84 | 1009.4 |
| 20260506044608 | 24 | 171 | 0.0 | 0.0 | 0.00 | 0.00 | 0.00 | 84 | 1007.2 |
| 20260506044333 | 24 | 185 | 0.0 | 0.0 | 0.00 | 0.00 | 0.00 | 84 | 1009.4 |
| 20260506044048 | 24 | 206 | 0.0 | 0.0 | 0.00 | 0.00 | 0.00 | 84 | 1007.1 |
| 20260506043827 | 24 | 164 | 0.0 | 0.0 | 0.00 | 0.00 | 0.00 | 84 | 1009.4 |
| 20260506043522 | 24 | 152 | 0.0 | 0.0 | 0.00 | 0.00 | 0.00 | 83 | 1006.9 |
| 20260506043324 | 24 | 196 | 0.0 | 0.0 | 0.00 | 0.00 | 0.00 | 84 | 1009.3 |
| 20260506043019 | 24 | 213 | 0.0 | 0.0 | 0.00 | 0.00 | 0.00 | 83 | 1007.0 |
| 20260506042840 | 24 | 187 | 0.0 | 0.0 | 0.00 | 0.00 | 0.00 | 83 | 1009.2 |
| 20260506042544 | 24 | 179 | 0.0 | 0.0 | 0.00 | 0.00 | 0.00 | 83 | 1007.1 |
| 20260506042316 | 24 | 188 | 0.0 | 0.0 | 0.00 | 0.00 | 0.00 | 83 | 1009.3 |
| 20260506042035 | 24 | 154 | 0.0 | 0.0 | 0.00 | 0.00 | 0.00 | 83 | 1006.9 |
| 20260506041832 | 24 | 170 | 0.0 | 0.0 | 0.00 | 0.00 | 0.00 | 83 | 1009.2 |
| 20260506041530 | 24 | 208 | 0.0 | 0.0 | 0.00 | 0.00 | 0.00 | 83 | 1006.9 |
| 20260506041329 | 24 | 174 | 0.0 | 0.0 | 0.00 | 0.00 | 0.00 | 83 | 1009.2 |
| 20260506041024 | 24 | 193 | 0.0 | 0.0 | 0.00 | 0.00 | 0.00 | 83 | 1006.7 |
| 20260506040824 | 24 | 136 | 0.0 | 0.0 | 0.00 | 0.00 | 0.00 | 83 | 1009.1 |
| 20260506040520 | 24 | 175 | 0.0 | 0.0 | 0.00 | 0.00 | 0.00 | 83 | 1006.8 |
| 20260506040338 | 24 | 180 | 0.0 | 0.0 | 0.00 | 0.00 | 0.00 | 83 | 1009.0 |
| 20260506040040 | 24 | 171 | 0.0 | 0.0 | 0.00 | 0.00 | 0.00 | 83 | 1006.8 |
| 20260506035813 | 24 | 168 | 0.0 | 0.0 | 0.00 | 0.00 | 0.00 | 83 | 1009.2 |
| 20260506035534 | 23 | 181 | 0.0 | 0.0 | 0.00 | 0.00 | 0.00 | 83 | 1006.7 |
| 20260506035330 | 24 | 189 | 0.0 | 0.0 | 0.00 | 0.00 | 0.00 | 83 | 1009.1 |
| 20260506035028 | 23 | 168 | 0.0 | 0.0 | 0.00 | 0.00 | 0.00 | 83 | 1006.7 |
| 20260506034825 | 24 | 183 | 0.0 | 0.0 | 0.00 | 0.00 | 0.00 | 83 | 1009.0 |
| 20260506034524 | 23 | 164 | 0.0 | 0.0 | 0.00 | 0.00 | 0.00 | 83 | 1006.7 |
| 20260506034339 | 24 | 217 | 0.0 | 0.0 | 0.00 | 0.00 | 0.00 | 83 | 1009.1 |
| 20260506034044 | 23 | 198 | 0.0 | 0.0 | 0.00 | 0.00 | 0.00 | 83 | 1006.6 |
| 20260506033814 | 23 | 163 | 0.0 | 0.0 | 0.00 | 0.00 | 0.00 | 83 | 1008.9 |
| 20260506033538 | 23 | 188 | 0.0 | 0.0 | 0.00 | 0.00 | 0.00 | 83 | 1006.5 |
| 20260506033331 | 23 | 193 | 0.0 | 0.0 | 0.00 | 0.00 | 0.00 | 83 | 1008.8 |
| 20260506033034 | 23 | 180 | 0.0 | 0.0 | 0.00 | 0.00 | 0.00 | 83 | 1006.4 |
| 20260506032827 | 23 | 195 | 0.0 | 0.0 | 0.00 | 0.00 | 0.00 | 83 | 1008.8 |
| 20260506032525 | 23 | 161 | 0.0 | 0.0 | 0.00 | 0.00 | 0.00 | 83 | 1006.5 |
| 20260506032323 | 23 | 176 | 0.0 | 0.0 | 0.00 | 0.00 | 0.00 | 83 | 1008.9 |
| 20260506032011 | 23 | 164 | 0.0 | 0.0 | 0.00 | 0.00 | 0.00 | 83 | 1006.6 |
| 20260506031820 | 23 | 160 | 0.0 | 0.0 | 0.00 | 0.00 | 0.00 | 82 | 1008.9 |
| 20260506031604 | 23 | 156 | 0.0 | 0.0 | 0.00 | 0.00 | 0.00 | 82 | 1006.5 |
| 20260506031335 | 24 | 157 | 0.0 | 0.0 | 0.00 | 0.00 | 0.00 | 82 | 1008.9 |
| 20260506031032 | 23 | 136 | 0.0 | 0.0 | 0.00 | 0.00 | 0.00 | 82 | 1006.5 |
| 20260506030829 | 24 | 179 | 0.0 | 0.0 | 0.00 | 0.00 | 0.00 | 81 | 1008.8 |
| 20260506030553 | 23 | 179 | 0.0 | 0.0 | 0.00 | 0.00 | 0.00 | 81 | 1006.5 |
| 20260506030325 | 24 | 180 | 0.0 | 0.0 | 0.00 | 0.00 | 0.00 | 81 | 1008.8 |
| 20260506030050 | 24 | 180 | 0.0 | 0.0 | 0.00 | 0.00 | 0.00 | 81 | 1006.4 |
| 20260506025821 | 24 | 179 | 0.0 | 0.0 | 0.00 | 0.00 | 0.00 | 81 | 1008.8 |
| 20260506025544 | 24 | 180 | 0.0 | 0.0 | 0.00 | 0.00 | 0.00 | 80 | 1006.5 |
| 20260506025318 | 24 | 179 | 0.0 | 0.0 | 0.00 | 0.00 | 0.00 | 80 | 1008.8 |
| 20260506025036 | 24 | 179 | 0.0 | 0.0 | 0.00 | 0.00 | 0.00 | 80 | 1006.3 |
| 20260506024814 | 25 | 179 | 0.0 | 0.0 | 0.00 | 0.00 | 0.00 | 80 | 1008.6 |
| 20260506024529 | 24 | 166 | 0.0 | 0.0 | 0.00 | 0.00 | 0.00 | 80 | 1006.3 |
| 20260506024333 | 25 | 172 | 0.0 | 0.0 | 0.00 | 0.00 | 0.00 | 80 | 1008.5 |
| 20260506024012 | 24 | 191 | 0.0 | 0.0 | 0.00 | 0.00 | 0.00 | 80 | 1006.1 |
| 20260506023827 | 25 | 179 | 0.0 | 0.0 | 0.00 | 0.00 | 0.00 | 79 | 1008.5 |
| 20260506023503 | 24 | 190 | 0.0 | 0.0 | 0.00 | 0.00 | 0.00 | 79 | 1006.0 |
| 20260506023322 | 25 | 158 | 0.0 | 0.0 | 0.00 | 0.00 | 0.00 | 79 | 1008.3 |
| 20260506023057 | 24 | 189 | 0.0 | 0.0 | 0.00 | 0.00 | 0.00 | 79 | 1005.8 |
| 20260506022821 | 25 | 178 | 0.0 | 0.0 | 0.00 | 0.00 | 0.00 | 79 | 1008.1 |
| 20260506022548 | 25 | 178 | 0.0 | 0.0 | 0.00 | 0.00 | 0.00 | 78 | 1005.6 |
| 20260506022315 | 25 | 175 | 0.0 | 0.0 | 0.00 | 0.00 | 0.00 | 78 | 1008.0 |
| 20260506022038 | 25 | 175 | 0.0 | 0.0 | 0.00 | 0.00 | 0.00 | 78 | 1005.7 |
| 20260506021831 | 25 | 174 | 0.0 | 4.8 | 0.00 | 0.00 | 0.00 | 78 | 1008.1 |
| 20260506021528 | 25 | 154 | 0.0 | 9.7 | 0.00 | 0.00 | 0.00 | 78 | 1005.7 |
| 20260506021347 | 25 | 154 | 0.0 | 9.7 | 0.00 | 0.00 | 0.00 | 77 | 1008.1 |
| 20260506021055 | 25 | 154 | 1.6 | 9.7 | 0.00 | 0.00 | 0.00 | 77 | 1005.8 |
| 20260506020822 | 25 | 154 | 6.4 | 9.7 | 0.00 | 0.00 | 0.00 | 77 | 1008.1 |
| 20260506020544 | 25 | 143 | 4.8 | 8.0 | 0.00 | 0.00 | 0.00 | 76 | 1005.6 |
| 20260506020318 | 25 | 175 | 4.8 | 8.0 | 0.00 | 0.00 | 0.00 | 76 | 1007.9 |
| 20260506020106 | 25 | 175 | 4.8 | 8.0 | 0.00 | 0.00 | 0.00 | 76 | 1005.6 |
| 20260506015833 | 26 | 175 | 4.8 | 8.0 | 0.00 | 0.00 | 0.00 | 76 | 1008.0 |
| 20260506015528 | 25 | 174 | 4.8 | 8.0 | 0.00 | 0.00 | 0.00 | 76 | 1005.4 |
| 20260506015331 | 26 | 175 | 8.0 | 9.7 | 0.00 | 0.00 | 0.00 | 75 | 1007.7 |
| 20260506015013 | 26 | 183 | 0.0 | 0.0 | 0.00 | 0.00 | 0.00 | 75 | 1005.4 |
| 20260506014825 | 26 | 182 | 0.0 | 8.0 | 0.00 | 0.00 | 0.00 | 75 | 1007.6 |
| 20260506014507 | 26 | 178 | 0.0 | 11.3 | 0.00 | 0.00 | 0.00 | 75 | 1005.3 |
| 20260506014322 | 26 | 179 | 0.0 | 11.3 | 0.00 | 0.00 | 0.00 | 75 | 1007.6 |
| 20260506014100 | 26 | 168 | 3.2 | 12.9 | 0.00 | 0.00 | 0.00 | 74 | 1005.2 |
| 20260506013817 | 26 | 161 | 8.0 | 12.9 | 0.00 | 0.00 | 0.00 | 74 | 1007.6 |
| 20260506013552 | 26 | 174 | 6.4 | 12.9 | 0.00 | 0.00 | 0.00 | 74 | 1005.1 |
| 20260506013315 | 26 | 187 | 9.7 | 12.9 | 0.00 | 0.00 | 0.00 | 74 | 1007.4 |
| 20260506013042 | 26 | 162 | 0.0 | 8.0 | 0.00 | 0.00 | 0.00 | 74 | 1005.0 |
| 20260506012829 | 26 | 183 | 0.0 | 0.0 | 0.00 | 0.00 | 0.00 | 73 | 1007.4 |
| 20260506012536 | 26 | 199 | 0.0 | 0.0 | 0.00 | 0.00 | 0.00 | 73 | 1004.9 |
| 20260506012326 | 26 | 167 | 0.0 | 0.0 | 0.00 | 0.00 | 0.00 | 73 | 1007.3 |
| 20260506012031 | 26 | 181 | 0.0 | 0.0 | 0.00 | 0.00 | 0.00 | 73 | 1004.9 |
| 20260506011822 | 27 | 164 | 0.0 | 0.0 | 0.00 | 0.00 | 0.00 | 73 | 1007.3 |
| 20260506011527 | 26 | 181 | 0.0 | 0.0 | 0.00 | 0.00 | 0.00 | 72 | 1005.0 |
| 20260506011318 | 27 | 194 | 0.0 | 0.0 | 0.00 | 0.00 | 0.00 | 72 | 1007.4 |
| 20260506011016 | 26 | 168 | 0.0 | 0.0 | 0.00 | 0.00 | 0.00 | 72 | 1005.0 |
| 20260506010815 | 27 | 162 | 0.0 | 0.0 | 0.00 | 0.00 | 0.00 | 72 | 1007.4 |
| 20260506010602 | 27 | 174 | 0.0 | 0.0 | 0.00 | 0.00 | 0.00 | 71 | 1004.9 |
| 20260506010330 | 27 | 186 | 0.0 | 0.0 | 0.00 | 0.00 | 0.00 | 71 | 1007.4 |
| 20260506010054 | 27 | 182 | 0.0 | 0.0 | 0.00 | 0.00 | 0.00 | 71 | 1004.9 |
| 20260506005825 | 27 | 173 | 0.0 | 0.0 | 0.00 | 0.00 | 0.00 | 71 | 1007.4 |
| 20260506005548 | 27 | 167 | 0.0 | 0.0 | 0.00 | 0.00 | 0.00 | 70 | 1004.9 |
| 20260506005322 | 27 | 172 | 0.0 | 0.0 | 0.00 | 0.00 | 0.00 | 70 | 1007.1 |
| 20260506005039 | 27 | 164 | 0.0 | 0.0 | 0.00 | 0.00 | 0.00 | 70 | 1004.8 |
| 20260506004819 | 27 | 156 | 0.0 | 0.0 | 0.00 | 0.00 | 0.00 | 69 | 1007.1 |
| 20260506004541 | 27 | 166 | 0.0 | 0.0 | 0.00 | 0.00 | 0.00 | 69 | 1004.8 |
| 20260506004317 | 28 | 210 | 0.0 | 0.0 | 0.00 | 0.00 | 0.00 | 69 | 1007.0 |
| 20260506004034 | 27 | 178 | 0.0 | 0.0 | 0.00 | 0.00 | 0.00 | 68 | 1004.8 |
| 20260506003828 | 28 | 173 | 0.0 | 0.0 | 0.00 | 0.00 | 0.00 | 68 | 1007.0 |
| 20260506003512 | 28 | 216 | 0.0 | 0.0 | 0.00 | 0.00 | 0.00 | 68 | 1004.6 |
| 20260506003324 | 28 | 183 | 0.0 | 0.0 | 0.00 | 0.00 | 0.00 | 68 | 1007.0 |
| 20260506003004 | 28 | 164 | 0.0 | 0.0 | 0.00 | 0.00 | 0.00 | 68 | 1004.6 |
| 20260506002821 | 28 | 162 | 0.0 | 0.0 | 0.00 | 0.00 | 0.00 | 67 | 1007.0 |
| 20260506002558 | 28 | 210 | 0.0 | 0.0 | 0.00 | 0.00 | 0.00 | 67 | 1004.6 |
| 20260506002338 | 28 | 172 | 0.0 | 0.0 | 0.00 | 0.00 | 0.00 | 67 | 1007.1 |
| 20260506002028 | 28 | 193 | 0.0 | 0.0 | 0.00 | 0.00 | 0.00 | 67 | 1004.6 |
| 20260506001833 | 28 | 196 | 0.0 | 0.0 | 0.00 | 0.00 | 0.00 | 66 | 1006.9 |
| 20260506001512 | 28 | 177 | 0.0 | 0.0 | 0.00 | 0.00 | 0.00 | 67 | 1004.6 |
| 20260506001327 | 28 | 192 | 0.0 | 0.0 | 0.00 | 0.00 | 0.00 | 67 | 1006.9 |
| 20260506001004 | 28 | 166 | 0.0 | 0.0 | 0.00 | 0.00 | 0.00 | 66 | 1004.5 |
| 20260506000822 | 28 | 168 | 0.0 | 0.0 | 0.00 | 0.00 | 0.00 | 66 | 1006.9 |
| 20260506000601 | 28 | 170 | 0.0 | 0.0 | 0.00 | 0.00 | 0.00 | 66 | 1004.6 |
| 20260506000320 | 29 | 181 | 0.0 | 0.0 | 0.00 | 0.00 | 0.00 | 66 | 1007.1 |
| 20260506000118 | 28 | 162 | 0.0 | 0.0 | 0.00 | 0.00 | 0.00 | 66 | 1004.6 |
| 20260505235817 | 29 | 202 | 0.0 | 0.0 | 0.00 | 0.00 | 0.00 | 66 | 1007.1 |
| 20260505235546 | 28 | 178 | 0.0 | 0.0 | 0.00 | 0.00 | 0.00 | 66 | 1004.7 |
| 20260505235314 | 29 | 185 | 0.0 | 0.0 | 0.00 | 0.00 | 0.00 | 65 | 1007.0 |
| 20260505235041 | 28 | 210 | 0.0 | 0.0 | 0.00 | 0.00 | 0.00 | 66 | 1004.6 |
| 20260505234830 | 29 | 161 | 0.0 | 0.0 | 0.00 | 0.00 | 0.00 | 66 | 1006.9 |
| 20260505234532 | 28 | 168 | 0.0 | 0.0 | 0.00 | 0.00 | 0.00 | 66 | 1004.5 |
| 20260505234326 | 29 | 150 | 0.0 | 0.0 | 0.00 | 0.00 | 0.00 | 65 | 1007.0 |
| 20260505234026 | 28 | 155 | 0.0 | 0.0 | 0.00 | 0.00 | 0.00 | 65 | 1004.7 |
| 20260505233823 | 29 | 159 | 0.0 | 0.0 | 0.00 | 0.00 | 0.00 | 65 | 1007.1 |
| 20260505233506 | 28 | 195 | 0.0 | 0.0 | 0.00 | 0.00 | 0.00 | 64 | 1004.7 |
| 20260505233318 | 29 | 195 | 0.0 | 0.0 | 0.00 | 0.00 | 0.00 | 65 | 1007.0 |
| 20260505233058 | 29 | 166 | 0.0 | 0.0 | 0.00 | 0.00 | 0.00 | 64 | 1004.5 |
| 20260505232814 | 29 | 162 | 0.0 | 0.0 | 0.00 | 0.00 | 0.00 | 64 | 1006.9 |
| 20260505232548 | 29 | 207 | 0.0 | 0.0 | 0.00 | 0.00 | 0.00 | 63 | 1004.5 |
| 20260505232332 | 29 | 195 | 0.0 | 0.0 | 0.00 | 0.00 | 0.00 | 63 | 1006.9 |
| 20260505232040 | 29 | 206 | 0.0 | 0.0 | 0.00 | 0.00 | 0.00 | 63 | 1004.6 |
| 20260505231828 | 29 | 229 | 0.0 | 0.0 | 0.00 | 0.00 | 0.00 | 63 | 1006.9 |
| 20260505231534 | 29 | 200 | 0.0 | 0.0 | 0.00 | 0.00 | 0.00 | 62 | 1004.7 |
| 20260505231324 | 29 | 210 | 0.0 | 0.0 | 0.00 | 0.00 | 0.00 | 63 | 1007.1 |
| 20260505231028 | 29 | 193 | 0.0 | 0.0 | 0.00 | 0.00 | 0.00 | 62 | 1004.6 |
| 20260505230820 | 29 | 202 | 0.0 | 0.0 | 0.00 | 0.00 | 0.00 | 62 | 1006.9 |
| 20260505230517 | 29 | 191 | 0.0 | 0.0 | 0.00 | 0.00 | 0.00 | 62 | 1004.6 |
| 20260505230314 | 29 | 208 | 0.0 | 0.0 | 0.00 | 0.00 | 0.00 | 62 | 1006.9 |
| 20260505230016 | 29 | 181 | 0.0 | 0.0 | 0.00 | 0.00 | 0.00 | 62 | 1004.5 |
| 20260505225852 | 29 | 167 | 0.0 | 0.0 | 0.00 | 0.00 | 0.00 | 63 | 1006.9 |
| 20260505225540 | 29 | 223 | 0.0 | 0.0 | 0.00 | 0.00 | 0.00 | 62 | 1004.5 |
| 20260505225347 | 29 | 219 | 0.0 | 0.0 | 0.00 | 0.00 | 0.00 | 63 | 1006.8 |
| 20260505225002 | 29 | 223 | 0.0 | 0.0 | 0.00 | 0.00 | 0.00 | 62 | 1004.4 |
| 20260505224821 | 29 | 214 | 0.0 | 0.0 | 0.00 | 0.00 | 0.00 | 63 | 1006.8 |
| 20260505224543 | 29 | 204 | 0.0 | 0.0 | 0.00 | 0.00 | 0.00 | 63 | 1004.4 |
| 20260505224317 | 29 | 213 | 0.0 | 0.0 | 0.00 | 0.00 | 0.00 | 62 | 1006.8 |
| 20260505224018 | 29 | 166 | 0.0 | 0.0 | 0.00 | 0.00 | 0.00 | 62 | 1004.4 |
| 20260505223853 | 30 | 174 | 0.0 | 17.7 | 0.00 | 0.00 | 0.00 | 62 | 1006.7 |
| 20260505223549 | 29 | 183 | 0.0 | 19.3 | 0.00 | 0.00 | 0.00 | 61 | 1004.6 |
| 20260505223328 | 30 | 239 | 0.0 | 19.3 | 0.00 | 0.00 | 0.00 | 62 | 1006.9 |
| 20260505223041 | 29 | 234 | 14.5 | 19.3 | 0.00 | 0.00 | 0.00 | 61 | 1004.6 |
| 20260505222824 | 30 | 212 | 12.9 | 19.3 | 0.00 | 0.00 | 0.00 | 62 | 1006.9 |
| 20260505222537 | 29 | 217 | 8.0 | 16.1 | 0.00 | 0.00 | 0.00 | 62 | 1004.6 |
| 20260505222321 | 30 | 235 | 9.7 | 16.1 | 0.00 | 0.00 | 0.00 | 61 | 1006.9 |
| 20260505222024 | 29 | 240 | 8.0 | 17.7 | 0.00 | 0.00 | 0.00 | 61 | 1004.7 |
| 20260505221815 | 30 | 222 | 12.9 | 19.3 | 0.00 | 0.00 | 0.00 | 60 | 1006.9 |
| 20260505221508 | 29 | 212 | 9.7 | 19.3 | 0.00 | 0.00 | 0.00 | 62 | 1004.6 |
| 20260505221331 | 30 | 220 | 9.7 | 19.3 | 0.00 | 0.00 | 0.00 | 60 | 1006.8 |
| 20260505221101 | 30 | 202 | 9.7 | 17.7 | 0.00 | 0.00 | 0.00 | 61 | 1004.5 |
| 20260505220828 | 30 | 231 | 11.3 | 16.1 | 0.00 | 0.00 | 0.00 | 61 | 1006.9 |
| 20260505220555 | 30 | 215 | 8.0 | 16.1 | 0.00 | 0.00 | 0.00 | 61 | 1004.5 |
| 20260505220324 | 30 | 239 | 9.7 | 16.1 | 0.00 | 0.00 | 0.00 | 63 | 1006.9 |
| 20260505220104 | 30 | 203 | 9.7 | 17.7 | 0.00 | 0.00 | 0.00 | 62 | 1004.7 |
| 20260505215820 | 30 | 236 | 11.3 | 17.7 | 0.00 | 0.00 | 0.00 | 62 | 1006.9 |
| 20260505215539 | 29 | 210 | 8.0 | 14.5 | 0.00 | 0.00 | 0.00 | 63 | 1004.7 |
| 20260505215336 | 30 | 208 | 6.4 | 14.5 | 0.00 | 0.00 | 0.00 | 62 | 1006.8 |
| 20260505215003 | 29 | 165 | 11.3 | 20.9 | 0.00 | 0.00 | 0.00 | 62 | 1004.5 |
| 20260505214829 | 30 | 175 | 12.9 | 20.9 | 0.00 | 0.00 | 0.00 | 61 | 1006.8 |
| 20260505214605 | 29 | 214 | 11.3 | 20.9 | 0.00 | 0.00 | 0.00 | 62 | 1004.5 |
| 20260505214325 | 30 | 191 | 12.9 | 20.9 | 0.00 | 0.00 | 0.00 | 61 | 1006.9 |
| 20260505214048 | 29 | 206 | 11.3 | 16.1 | 0.00 | 0.00 | 0.00 | 61 | 1004.6 |
| 20260505213821 | 30 | 196 | 9.7 | 14.5 | 0.00 | 0.00 | 0.00 | 61 | 1006.8 |
| 20260505213541 | 29 | 218 | 4.8 | 14.5 | 0.00 | 0.00 | 0.00 | 63 | 1004.6 |
| 20260505213318 | 30 | 230 | 8.0 | 19.3 | 0.00 | 0.00 | 0.00 | 62 | 1007.0 |
| 20260505213034 | 29 | 225 | 11.3 | 19.3 | 0.00 | 0.00 | 0.00 | 62 | 1004.8 |
| 20260505212833 | 30 | 221 | 11.3 | 19.3 | 0.00 | 0.00 | 0.00 | 61 | 1007.1 |
| 20260505212518 | 29 | 170 | 9.7 | 22.5 | 0.00 | 0.00 | 0.00 | 63 | 1004.9 |
| 20260505212329 | 30 | 212 | 12.9 | 22.5 | 0.00 | 0.00 | 0.00 | 62 | 1007.2 |
| 20260505212010 | 29 | 193 | 12.9 | 22.5 | 0.00 | 0.00 | 0.00 | 62 | 1005.0 |
| 20260505211826 | 30 | 179 | 12.9 | 24.1 | 0.00 | 0.00 | 0.00 | 62 | 1007.3 |
| 20260505211502 | 29 | 184 | 6.4 | 16.1 | 0.00 | 0.00 | 0.00 | 63 | 1005.1 |
| 20260505211322 | 29 | 234 | 8.0 | 20.9 | 0.00 | 0.00 | 0.00 | 64 | 1007.4 |
| 20260505211059 | 29 | 207 | 6.4 | 20.9 | 0.00 | 0.00 | 0.00 | 63 | 1005.2 |
| 20260505210818 | 29 | 248 | 9.7 | 20.9 | 0.00 | 0.00 | 0.00 | 63 | 1007.6 |
| 20260505210545 | 29 | 239 | 8.0 | 19.3 | 0.00 | 0.00 | 0.00 | 63 | 1005.3 |
| 20260505210317 | 29 | 270 | 9.7 | 19.3 | 0.00 | 0.00 | 0.00 | 63 | 1007.6 |
| 20260505210044 | 29 | 199 | 12.9 | 19.3 | 0.00 | 0.00 | 0.00 | 62 | 1005.4 |
| 20260505205853 | 30 | 231 | 6.4 | 19.3 | 0.00 | 0.00 | 0.00 | 63 | 1007.6 |
| 20260505205504 | 29 | 228 | 0.0 | 0.0 | 0.00 | 0.00 | 0.00 | 64 | 1005.3 |
| 20260505205327 | 29 | 241 | 0.0 | 0.0 | 0.00 | 0.00 | 0.00 | 63 | 1007.7 |
| 20260505205058 | 29 | 220 | 0.0 | 0.0 | 0.00 | 0.00 | 0.00 | 64 | 1005.3 |
| 20260505204823 | 29 | 223 | 0.0 | 0.0 | 0.00 | 0.00 | 0.00 | 63 | 1007.7 |
| 20260505204559 | 29 | 219 | 0.0 | 0.0 | 0.00 | 0.00 | 0.00 | 64 | 1005.4 |
| 20260505204318 | 29 | 167 | 0.0 | 0.0 | 0.00 | 0.00 | 0.00 | 66 | 1007.6 |
| 20260505204041 | 28 | 171 | 0.0 | 0.0 | 0.00 | 0.00 | 0.00 | 64 | 1005.4 |
| 20260505203814 | 29 | 156 | 0.0 | 0.0 | 0.00 | 0.00 | 0.00 | 65 | 1007.7 |
| 20260505203534 | 28 | 201 | 0.0 | 0.0 | 0.00 | 0.00 | 0.00 | 64 | 1005.5 |
| 20260505203331 | 29 | 222 | 0.0 | 0.0 | 0.00 | 0.00 | 0.00 | 64 | 1007.8 |
| 20260505203029 | 28 | 199 | 0.0 | 0.0 | 0.00 | 0.00 | 0.00 | 65 | 1005.5 |
| 20260505202828 | 29 | 224 | 0.0 | 0.0 | 0.00 | 0.00 | 0.00 | 65 | 1007.8 |
| 20260505202512 | 28 | 226 | 0.0 | 0.0 | 0.00 | 0.00 | 0.00 | 65 | 1005.5 |
| 20260505202323 | 29 | 243 | 0.0 | 0.0 | 0.00 | 0.00 | 0.00 | 67 | 1007.9 |
| 20260505202005 | 28 | 233 | 0.0 | 0.0 | 0.00 | 0.00 | 0.00 | 66 | 1005.7 |
| 20260505201819 | 28 | 229 | 0.0 | 0.0 | 0.00 | 0.00 | 0.00 | 66 | 1008.1 |
| 20260505201600 | 28 | 187 | 0.0 | 0.0 | 0.00 | 0.00 | 0.00 | 66 | 1005.5 |
| 20260505201314 | 28 | 239 | 0.0 | 0.0 | 0.00 | 0.00 | 0.00 | 66 | 1007.9 |
| 20260505201051 | 28 | 233 | 0.0 | 0.0 | 0.00 | 0.00 | 0.00 | 66 | 1005.7 |
| 20260505200829 | 28 | 187 | 0.0 | 0.0 | 0.00 | 0.00 | 0.00 | 67 | 1008.0 |
| 20260505200543 | 28 | 206 | 0.0 | 0.0 | 0.00 | 0.00 | 0.00 | 66 | 1005.6 |
| 20260505200346 | 28 | 195 | 0.0 | 0.0 | 0.00 | 0.00 | 0.00 | 67 | 1007.8 |
| 20260505200008 | 28 | 240 | 0.0 | 0.0 | 0.00 | 0.00 | 0.00 | 68 | 1005.4 |
| 20260505195842 | 28 | 177 | 0.0 | 0.0 | 0.00 | 0.00 | 0.00 | 67 | 1007.8 |
| 20260505195537 | 28 | 210 | 0.0 | 0.0 | 0.00 | 0.00 | 0.00 | 68 | 1005.6 |
| 20260505195335 | 28 | 197 | 0.0 | 0.0 | 0.00 | 0.00 | 0.00 | 68 | 1008.0 |
| 20260505195101 | 28 | 247 | 0.0 | 0.0 | 0.00 | 0.00 | 0.00 | 70 | 1005.6 |
| 20260505194829 | 28 | 193 | 0.0 | 0.0 | 0.00 | 0.00 | 0.00 | 68 | 1008.1 |
| 20260505194554 | 28 | 201 | 0.0 | 0.0 | 0.00 | 0.00 | 0.00 | 68 | 1005.9 |
| 20260505194323 | 28 | 196 | 0.0 | 0.0 | 0.00 | 0.00 | 0.00 | 68 | 1008.1 |
| 20260505194032 | 28 | 172 | 0.0 | 0.0 | 0.00 | 0.00 | 0.00 | 69 | 1005.9 |
| 20260505193838 | 28 | 195 | 0.0 | 0.0 | 0.00 | 0.00 | 0.00 | 69 | 1008.1 |
| 20260505193550 | 27 | 212 | 0.0 | 0.0 | 0.00 | 0.00 | 0.00 | 69 | 1005.9 |
| 20260505193328 | 28 | 222 | 0.0 | 0.0 | 0.00 | 0.00 | 0.00 | 69 | 1008.2 |
| 20260505193013 | 28 | 245 | 0.0 | 0.0 | 0.00 | 0.00 | 0.00 | 70 | 1005.8 |
| 20260505192823 | 28 | 224 | 0.0 | 0.0 | 0.00 | 0.00 | 0.00 | 69 | 1008.0 |
| 20260505192505 | 27 | 168 | 0.0 | 0.0 | 0.00 | 0.00 | 0.00 | 69 | 1005.9 |
| 20260505192318 | 28 | 195 | 0.0 | 0.0 | 0.00 | 0.00 | 0.00 | 70 | 1008.1 |
| 20260505192037 | 27 | 228 | 0.0 | 0.0 | 0.00 | 0.00 | 0.00 | 69 | 1005.9 |
| 20260505191831 | 28 | 237 | 0.0 | 0.0 | 0.00 | 0.00 | 0.00 | 71 | 1008.2 |
| 20260505191534 | 27 | 238 | 0.0 | 0.0 | 0.00 | 0.00 | 0.00 | 70 | 1006.0 |
| 20260505191327 | 27 | 222 | 0.0 | 0.0 | 0.00 | 0.00 | 0.00 | 70 | 1008.3 |
| 20260505191025 | 27 | 218 | 0.0 | 0.0 | 0.00 | 0.00 | 0.00 | 71 | 1006.0 |
| 20260505190823 | 27 | 239 | 0.0 | 0.0 | 0.00 | 0.00 | 0.00 | 70 | 1008.2 |
| 20260505190507 | 27 | 244 | 0.0 | 0.0 | 0.00 | 0.00 | 0.00 | 71 | 1006.1 |
| 20260505190320 | 27 | 184 | 0.0 | 0.0 | 0.00 | 0.00 | 0.00 | 72 | 1008.4 |
| 20260505190114 | 27 | 220 | 0.0 | 0.0 | 0.00 | 0.00 | 0.00 | 73 | 1006.1 |
| 20260505185836 | 27 | 147 | 0.0 | 0.0 | 0.00 | 0.00 | 0.00 | 71 | 1008.5 |
| 20260505185531 | 27 | 189 | 0.0 | 0.0 | 0.00 | 0.00 | 0.00 | 72 | 1006.3 |
| 20260505185331 | 27 | 220 | 0.0 | 0.0 | 0.00 | 0.00 | 0.00 | 73 | 1008.6 |
| 20260505185015 | 26 | 217 | 0.0 | 0.0 | 0.00 | 0.00 | 0.00 | 73 | 1006.3 |
| 20260505184827 | 27 | 209 | 0.0 | 0.0 | 0.00 | 0.00 | 0.00 | 72 | 1008.7 |
| 20260505184547 | 26 | 227 | 0.0 | 0.0 | 0.00 | 0.00 | 0.00 | 72 | 1006.4 |
| 20260505184324 | 27 | 233 | 0.0 | 0.0 | 0.00 | 0.00 | 0.00 | 72 | 1008.7 |
| 20260505184040 | 27 | 258 | 0.0 | 0.0 | 0.00 | 0.00 | 0.00 | 73 | 1006.6 |
| 20260505183820 | 27 | 240 | 0.0 | 0.0 | 0.00 | 0.00 | 0.00 | 74 | 1008.9 |
| 20260505183531 | 26 | 256 | 0.0 | 0.0 | 0.00 | 0.00 | 0.00 | 74 | 1006.7 |
| 20260505183315 | 27 | 228 | 0.0 | 0.0 | 0.00 | 0.00 | 0.00 | 73 | 1008.9 |
| 20260505183024 | 26 | 195 | 0.0 | 0.0 | 0.00 | 0.00 | 0.00 | 73 | 1006.8 |
| 20260505182830 | 27 | 224 | 0.0 | 0.0 | 0.00 | 0.00 | 0.00 | 73 | 1009.1 |
| 20260505182505 | 26 | 231 | 0.0 | 0.0 | 0.00 | 0.00 | 0.00 | 73 | 1006.8 |
| 20260505182327 | 26 | 213 | 0.0 | 0.0 | 0.00 | 0.00 | 0.00 | 73 | 1009.1 |
| 20260505182037 | 26 | 213 | 0.0 | 0.0 | 0.00 | 0.00 | 0.00 | 74 | 1006.9 |
| 20260505181824 | 26 | 212 | 0.0 | 0.0 | 0.00 | 0.00 | 0.00 | 74 | 1009.2 |
| 20260505181532 | 26 | 240 | 0.0 | 0.0 | 0.00 | 0.00 | 0.00 | 74 | 1007.0 |
| 20260505181320 | 26 | 245 | 0.0 | 0.0 | 0.00 | 0.00 | 0.00 | 74 | 1009.2 |
| 20260505181021 | 26 | 222 | 0.0 | 0.0 | 0.00 | 0.00 | 0.00 | 74 | 1007.1 |
| 20260505180816 | 26 | 226 | 0.0 | 0.0 | 0.00 | 0.00 | 0.00 | 74 | 1009.2 |
| 20260505180514 | 26 | 185 | 0.0 | 0.0 | 0.00 | 0.00 | 0.00 | 74 | 1007.1 |
| 20260505180332 | 26 | 218 | 0.0 | 0.0 | 0.00 | 0.00 | 0.00 | 74 | 1009.4 |
| 20260505180106 | 26 | 212 | 0.0 | 0.0 | 0.00 | 0.00 | 0.00 | 75 | 1007.1 |
| 20260505175848 | 26 | 220 | 0.0 | 0.0 | 0.00 | 0.00 | 0.00 | 75 | 1009.4 |
| 20260505175528 | 26 | 227 | 0.0 | 0.0 | 0.00 | 0.00 | 0.00 | 76 | 1007.3 |
| 20260505175322 | 26 | 198 | 0.0 | 0.0 | 0.00 | 0.00 | 0.00 | 75 | 1009.5 |
| 20260505175021 | 25 | 204 | 0.0 | 0.0 | 0.00 | 0.00 | 0.00 | 76 | 1007.3 |
| 20260505174839 | 26 | 211 | 0.0 | 0.0 | 0.00 | 0.00 | 0.00 | 76 | 1009.5 |
| 20260505174547 | 25 | 222 | 0.0 | 0.0 | 0.00 | 0.00 | 0.00 | 75 | 1007.4 |
| 20260505174354 | 25 | 228 | 0.0 | 0.0 | 0.00 | 0.00 | 0.00 | 76 | 1009.6 |
| 20260505174013 | 25 | 195 | 0.0 | 0.0 | 0.00 | 0.00 | 0.00 | 76 | 1007.3 |
| 20260505173829 | 26 | 177 | 0.0 | 0.0 | 0.00 | 0.00 | 0.00 | 76 | 1009.6 |
| 20260505173506 | 25 | 218 | 0.0 | 0.0 | 0.00 | 0.00 | 0.00 | 76 | 1007.5 |
| 20260505173323 | 25 | 222 | 0.0 | 0.0 | 0.00 | 0.00 | 0.00 | 77 | 1009.6 |
| 20260505173057 | 25 | 222 | 0.0 | 0.0 | 0.00 | 0.00 | 0.00 | 77 | 1007.3 |
| 20260505172819 | 25 | 197 | 0.0 | 0.0 | 0.00 | 0.00 | 0.00 | 77 | 1009.6 |
| 20260505172549 | 25 | 217 | 0.0 | 0.0 | 0.00 | 0.00 | 0.00 | 77 | 1007.6 |
| 20260505172316 | 25 | 205 | 0.0 | 0.0 | 0.00 | 0.00 | 0.00 | 77 | 1009.8 |
| 20260505172043 | 25 | 210 | 0.0 | 0.0 | 0.00 | 0.00 | 0.00 | 77 | 1007.6 |
| 20260505171827 | 25 | 207 | 0.0 | 0.0 | 0.00 | 0.00 | 0.00 | 77 | 1009.8 |
| 20260505171541 | 25 | 224 | 0.0 | 0.0 | 0.00 | 0.00 | 0.00 | 76 | 1007.7 |
| 20260505171344 | 25 | 233 | 0.0 | 0.0 | 0.00 | 0.00 | 0.00 | 76 | 1009.9 |
| 20260505171101 | 25 | 304 | 0.0 | 0.0 | 0.00 | 0.00 | 0.00 | 77 | 1007.8 |
| 20260505170817 | 25 | 199 | 0.0 | 0.0 | 0.00 | 0.00 | 0.00 | 77 | 1010.0 |
| 20260505170553 | 25 | 218 | 0.0 | 0.0 | 0.00 | 0.00 | 0.00 | 78 | 1007.8 |
| 20260505170333 | 25 | 214 | 0.0 | 0.0 | 0.00 | 0.00 | 0.00 | 78 | 1009.9 |
| 20260505170048 | 24 | 222 | 0.0 | 0.0 | 0.00 | 0.00 | 0.00 | 78 | 1007.7 |
| 20260505165830 | 25 | 225 | 0.0 | 0.0 | 0.00 | 0.00 | 0.00 | 78 | 1009.7 |
| 20260505165541 | 24 | 197 | 0.0 | 0.0 | 0.00 | 0.00 | 0.00 | 78 | 1007.5 |
| 20260505165326 | 24 | 212 | 0.0 | 0.0 | 0.00 | 0.00 | 0.00 | 78 | 1009.6 |
| 20260505165028 | 24 | 228 | 0.0 | 0.0 | 0.00 | 0.00 | 0.00 | 78 | 1007.5 |
| 20260505164843 | 25 | 222 | 0.0 | 0.0 | 0.00 | 0.00 | 0.00 | 77 | 1009.6 |
| 20260505164554 | 24 | 208 | 0.0 | 0.0 | 0.00 | 0.00 | 0.00 | 78 | 1007.4 |
| 20260505164319 | 25 | 218 | 0.0 | 0.0 | 0.00 | 0.00 | 0.00 | 78 | 1009.6 |
| 20260505164046 | 24 | 240 | 0.0 | 0.0 | 0.00 | 0.00 | 0.00 | 79 | 1007.5 |